GW1701 Weather Reports


Display with metric or nautical units.
time (UTC)temp
F
wind
direction
speed
MPH
gust
MPH
rain 1hr
in
rain 24hr
in
rain mn
in
humidity
%
barometer
mb
20260509201454 83 123 1.0 2.0 0.00 0.00 0.00 78 1009.5
20260509200951 82 14 0.0 2.0 0.00 0.00 0.00 79 1009.8
20260509200446 85 75 1.0 2.0 0.00 0.00 0.00 83 1010.0
20260509195943 83 191 1.0 2.0 0.00 0.00 0.00 85 1009.7
20260509195439 81 132 0.0 0.0 0.00 0.00 0.00 89 1009.8
20260509194938 79 121 0.0 0.0 0.00 0.00 0.00 93 1009.8
20260509194434 79 106 0.0 0.0 0.00 0.00 0.00 94 1010.2
20260509193932 79 112 0.0 0.0 0.00 0.00 0.00 94 1010.0
20260509193431 79 107 0.0 0.0 0.00 0.00 0.00 93 1009.9
20260509192927 80 107 0.0 0.0 0.00 0.00 0.00 92 1010.0
20260509192424 81 107 0.0 0.0 0.00 0.00 0.00 90 1009.7
20260509191919 82 115 1.0 2.0 0.00 0.00 0.00 88 1009.8
20260509191414 83 50 1.0 2.0 0.00 0.00 0.00 83 1009.6
20260509190911 83 81 0.0 2.0 0.00 0.00 0.00 80 1009.5
20260509190408 84 97 0.0 0.0 0.00 0.00 0.00 79 1009.6
20260509185905 84 99 0.0 0.0 0.00 0.00 0.00 80 1009.9
20260509185402 84 155 2.0 3.0 0.00 0.00 0.00 79 1010.0
20260509184858 84 74 0.0 0.0 0.00 0.00 0.00 80 1009.6
20260509184355 84 83 0.0 0.0 0.00 0.00 0.00 80 1009.9
20260509183853 84 9 0.0 0.0 0.00 0.00 0.00 79 1010.2
20260509183347 84 116 0.0 0.0 0.00 0.00 0.00 80 1010.1
20260509182843 85 79 0.0 0.0 0.00 0.00 0.00 78 1010.3
20260509182341 86 147 2.0 3.0 0.00 0.00 0.00 74 1010.3
20260509181838 86 84 0.0 0.0 0.00 0.00 0.00 73 1010.3
20260509181335 86 81 0.0 0.0 0.00 0.00 0.00 72 1010.4
20260509180832 87 93 0.0 0.0 0.00 0.00 0.00 71 1010.2
20260509180328 87 106 0.0 0.0 0.00 0.00 0.00 69 1010.5
20260509175825 87 77 1.0 2.0 0.00 0.00 0.00 68 1010.4
20260509175321 87 99 1.0 2.0 0.00 0.00 0.00 71 1010.4
20260509174818 85 341 2.0 3.0 0.00 0.00 0.00 73 1010.7
20260509174313 87 136 1.0 2.0 0.00 0.00 0.00 72 1010.6
20260509173810 87 94 0.0 0.0 0.00 0.00 0.00 70 1010.7
20260509173305 86 84 0.0 0.0 0.00 0.00 0.00 74 1010.8
20260509172801 85 89 0.0 0.0 0.00 0.00 0.00 74 1010.6
20260509172253 85 101 0.0 0.0 0.00 0.00 0.00 77 1010.9
20260509171749 85 80 1.0 2.0 0.00 0.00 0.00 76 1010.8
20260509171245 85 108 0.0 2.0 0.00 0.00 0.00 76 1010.8
20260509170742 86 325 2.0 3.0 0.00 0.00 0.00 75 1011.0
20260509170238 85 75 0.0 0.0 0.00 0.00 0.00 76 1011.1
20260509165736 84 103 0.0 0.0 0.00 0.00 0.00 78 1011.0
20260509165232 84 184 2.0 3.0 0.00 0.00 0.00 79 1010.8
20260509164728 84 94 1.0 2.0 0.00 0.00 0.00 79 1011.1
20260509164224 84 124 1.0 3.0 0.00 0.00 0.00 81 1011.0
20260509163721 84 160 3.0 5.0 0.00 0.00 0.00 79 1011.1
20260509163217 85 142 3.0 3.0 0.00 0.00 0.00 76 1011.2
20260509162715 84 52 2.0 3.0 0.00 0.00 0.00 79 1011.2
20260509162210 83 120 0.0 0.0 0.00 0.00 0.00 83 1011.5
20260509161706 83 119 0.0 0.0 0.00 0.00 0.00 80 1011.3
20260509161203 82 105 1.0 2.0 0.00 0.00 0.00 83 1011.0
20260509160658 82 122 1.0 2.0 0.00 0.00 0.00 82 1011.4
20260509160154 82 110 1.0 2.0 0.00 0.00 0.00 82 1011.5
20260509155650 82 101 1.0 2.0 0.00 0.00 0.00 84 1011.4
20260509155146 80 81 2.0 3.0 0.00 0.00 0.00 87 1011.3
20260509154642 80 120 1.0 2.0 0.00 0.00 0.00 88 1011.2
20260509154140 80 61 2.0 3.0 0.00 0.00 0.00 88 1011.2
20260509153636 79 210 1.0 3.0 0.00 0.00 0.00 88 1011.1
20260509153133 79 112 0.0 2.0 0.00 0.00 0.00 88 1010.8
20260509152628 80 104 0.0 0.0 0.00 0.00 0.00 89 1010.7
20260509152126 79 30 2.0 2.0 0.00 0.00 0.00 90 1010.7
20260509151622 79 198 2.0 3.0 0.00 0.00 0.00 90 1010.7
20260509151120 79 58 0.0 2.0 0.00 0.00 0.00 91 1010.7
20260509150618 78 84 1.0 2.0 0.00 0.00 0.00 91 1010.6
20260509150116 77 196 5.0 6.0 0.00 0.00 0.00 92 1010.7
20260509145611 77 132 2.0 3.0 0.00 0.00 0.00 93 1010.3
20260509145107 77 90 3.0 5.0 0.00 0.00 0.00 93 1010.4
20260509144604 76 189 2.0 3.0 0.00 0.00 0.00 94 1010.3
20260509144101 75 107 2.0 3.0 0.00 0.00 0.00 95 1010.4
20260509143558 75 213 2.0 3.0 0.00 0.00 0.00 97 1010.3
20260509143055 74 124 1.0 2.0 0.00 0.00 0.00 98 1010.3
20260509142550 74 167 3.0 5.0 0.00 0.00 0.00 98 1010.1
20260509142046 74 223 2.0 3.0 0.00 0.00 0.00 99 1009.9
20260509141543 74 86 2.0 3.0 0.00 0.00 0.00 99 1010.1
20260509141040 74 207 2.0 5.0 0.00 0.00 0.00 99 1009.9
20260509140536 74 106 0.0 0.0 0.00 0.00 0.00 99 1009.6
20260509140034 74 167 3.0 5.0 0.00 0.00 0.00 99 1009.5
20260509135531 74 55 0.0 0.0 0.00 0.00 0.00 99 1009.6
20260509135029 73 162 2.0 3.0 0.00 0.00 0.00 99 1010.0
20260509134526 73 128 1.0 2.0 0.00 0.00 0.00 99 1009.7
20260509134024 73 212 2.0 2.0 0.00 0.00 0.00 99 1010.0
20260509133520 73 169 3.0 3.0 0.00 0.00 0.00 99 1010.0
20260509133018 72 118 0.0 0.0 0.00 0.00 0.00 99 1010.0
20260509132516 72 63 3.0 6.0 0.00 0.00 0.00 99 1009.8
20260509132013 72 132 1.0 3.0 0.00 0.00 0.00 99 1010.1
20260509131509 72 191 3.0 5.0 0.00 0.00 0.00 99 1010.2
20260509131006 72 97 0.0 0.0 0.00 0.00 0.00 99 1010.3
20260509130501 72 128 0.0 0.0 0.00 0.00 0.00 99 1010.5
20260509125959 72 108 0.0 2.0 0.00 0.00 0.00 99 1010.5
20260509125455 72 44 0.0 0.0 0.00 0.00 0.00 99 1010.3
20260509124951 72 117 0.0 2.0 0.00 0.00 0.00 99 1010.4
20260509124449 72 108 0.0 0.0 0.00 0.00 0.00 99 1010.4
20260509123946 71 104 0.0 0.0 0.00 0.00 0.00 99 1010.2
20260509123443 71 92 0.0 0.0 0.00 0.00 0.00 99 1010.1
20260509122939 71 84 0.0 0.0 0.00 0.00 0.00 99 1010.2
20260509122436 71 89 0.0 0.0 0.00 0.00 0.00 99 1010.5
20260509121932 71 92 0.0 0.0 0.00 0.00 0.00 99 1010.2
20260509121430 71 94 0.0 0.0 0.00 0.00 0.00 99 1010.1
20260509120928 71 89 0.0 0.0 0.00 0.00 0.00 99 1010.0
20260509120425 71 95 0.0 0.0 0.00 0.00 0.00 99 1010.1
20260509115923 71 91 0.0 0.0 0.00 0.00 0.00 99 1010.4
20260509115420 71 90 0.0 0.0 0.00 0.00 0.00 99 1010.4
20260509114918 71 106 0.0 0.0 0.00 0.00 0.00 99 1010.6
20260509114416 71 105 0.0 0.0 0.00 0.00 0.00 99 1010.5
20260509113916 71 102 0.0 0.0 0.00 0.00 0.00 99 1010.6
20260509113413 72 91 0.0 0.0 0.00 0.00 0.00 99 1010.9
20260509112909 72 87 0.0 0.0 0.00 0.00 0.00 99 1011.1
20260509112406 72 85 0.0 0.0 0.00 0.00 0.00 99 1011.4
20260509111903 72 82 0.0 0.0 0.00 0.00 0.00 99 1011.5
20260509111400 72 79 0.0 0.0 0.00 0.00 0.00 99 1011.7
20260509110858 72 82 0.0 0.0 0.00 0.00 0.00 99 1011.9
20260509110353 72 69 0.0 2.0 0.00 0.00 0.00 99 1011.5
20260509105852 72 70 0.0 0.0 0.00 0.00 0.00 99 1011.8
20260509105350 72 87 0.0 0.0 0.00 0.00 0.00 99 1011.5
20260509104846 72 83 0.0 0.0 0.00 0.00 0.00 99 1011.6
20260509104343 72 78 0.0 0.0 0.00 0.00 0.00 99 1011.7
20260509103841 72 67 1.0 2.0 0.00 0.00 0.00 99 1011.5
20260509103338 72 82 0.0 0.0 0.00 0.00 0.00 99 1011.7
20260509102837 72 84 0.0 0.0 0.00 0.00 0.00 99 1011.3
20260509102333 72 104 0.0 0.0 0.00 0.00 0.00 99 1011.0
20260509101829 72 110 0.0 0.0 0.00 0.00 0.00 99 1011.4
20260509101326 72 96 0.0 0.0 0.00 0.00 0.00 99 1011.3
20260509100824 72 81 0.0 0.0 0.00 0.00 0.00 99 1011.5
20260509100320 72 83 0.0 0.0 0.00 0.00 0.00 99 1011.2
20260509095817 72 83 0.0 0.0 0.00 0.00 0.00 99 1011.1
20260509095314 72 84 0.0 0.0 0.00 0.00 0.00 99 1011.1
20260509094811 72 84 0.0 0.0 0.00 0.00 0.00 99 1010.9
20260509094308 72 92 0.0 0.0 0.00 0.00 0.00 99 1010.9
20260509093806 72 92 0.0 0.0 0.00 0.00 0.00 99 1010.5
20260509093303 72 101 0.0 0.0 0.00 0.00 0.00 99 1010.1
20260509092801 72 105 0.0 0.0 0.00 0.00 0.00 99 1010.2
20260509092259 72 105 0.0 0.0 0.00 0.00 0.00 99 1010.0
20260509091757 72 106 0.0 0.0 0.00 0.00 0.00 99 1010.0
20260509091253 72 114 0.0 0.0 0.00 0.00 0.00 99 1010.0
20260509090750 72 105 0.0 0.0 0.00 0.00 0.00 99 1010.0
20260509090247 72 86 0.0 0.0 0.00 0.00 0.00 99 1010.0
20260509085745 72 86 0.0 0.0 0.00 0.00 0.00 99 1010.3
20260509085242 72 84 0.0 0.0 0.00 0.00 0.00 99 1010.1
20260509084738 72 84 0.0 0.0 0.00 0.00 0.00 99 1010.4
20260509084235 72 84 0.0 0.0 0.00 0.00 0.00 99 1010.5
20260509083733 72 84 0.0 0.0 0.00 0.00 0.00 99 1010.6
20260509083230 72 88 0.0 0.0 0.00 0.00 0.00 99 1010.7
20260509082726 72 98 0.0 0.0 0.00 0.00 0.00 99 1010.5
20260509082223 72 100 0.0 0.0 0.00 0.00 0.00 99 1010.4
20260509081720 72 100 0.0 0.0 0.00 0.00 0.00 99 1010.4
20260509081218 72 100 0.0 0.0 0.00 0.00 0.00 99 1010.6
20260509080716 72 100 0.0 0.0 0.00 0.00 0.00 99 1010.5
20260509080213 72 100 0.0 0.0 0.00 0.00 0.00 99 1010.7
20260509075711 72 98 0.0 0.0 0.00 0.00 0.00 99 1010.5
20260509075208 72 98 0.0 0.0 0.00 0.00 0.00 99 1010.8
20260509074705 72 99 0.0 0.0 0.00 0.00 0.00 99 1010.8
20260509074202 72 98 0.0 0.0 0.00 0.00 0.00 99 1010.9
20260509073659 72 98 0.0 0.0 0.00 0.00 0.00 99 1011.0
20260509073155 72 97 0.0 0.0 0.00 0.00 0.00 99 1011.5
20260509072652 72 97 0.0 0.0 0.00 0.00 0.00 99 1011.2
20260509072148 72 97 0.0 0.0 0.00 0.00 0.00 99 1011.1
20260509071645 72 98 0.0 0.0 0.00 0.00 0.00 99 1011.1
20260509071142 72 100 0.0 0.0 0.00 0.00 0.00 99 1011.3
20260509070639 72 100 0.0 0.0 0.00 0.00 0.00 99 1011.1
20260509070136 72 100 0.0 0.0 0.00 0.00 0.00 99 1010.9
20260509065631 72 100 0.0 0.0 0.00 0.00 0.00 99 1010.9
20260509065128 72 99 0.0 0.0 0.00 0.00 0.00 99 1010.6
20260509064625 72 107 0.0 0.0 0.00 0.00 0.00 99 1010.9
20260509064123 72 107 0.0 0.0 0.00 0.00 0.00 99 1011.0
20260509063619 72 102 0.0 0.0 0.00 0.00 0.00 99 1010.9
20260509063116 72 105 0.0 0.0 0.00 0.00 0.00 99 1010.9
20260509062613 72 103 0.0 0.0 0.00 0.00 0.00 99 1010.7
20260509062110 72 103 0.0 0.0 0.00 0.00 0.00 99 1010.8
20260509061607 72 97 1.0 2.0 0.00 0.00 0.00 99 1010.5
20260509061104 72 98 0.0 0.0 0.00 0.00 0.00 99 1010.4
20260509060602 72 166 0.0 0.0 0.00 0.00 0.00 98 1010.7
20260509060058 72 111 1.0 2.0 0.00 0.00 0.00 98 1010.8
20260509055553 72 115 2.0 3.0 0.00 0.00 0.00 98 1010.9
20260509055049 71 109 0.0 0.0 0.00 0.00 0.00 98 1010.5
20260509054546 71 112 0.0 2.0 0.00 0.00 0.00 98 1010.2
20260509054044 71 35 0.0 0.0 0.00 0.00 0.00 98 1010.2
20260509053543 71 107 0.0 0.0 0.00 0.00 0.00 98 1010.0
20260509053039 71 100 0.0 0.0 0.00 0.00 0.00 98 1009.7
20260509052537 71 97 0.0 0.0 0.00 0.00 0.00 98 1009.7
20260509052035 71 104 0.0 0.0 0.00 0.00 0.00 98 1009.7
20260509051533 71 96 0.0 0.0 0.00 0.00 0.00 98 1009.9
20260509051029 71 104 0.0 0.0 0.00 0.00 0.00 98 1009.7
20260509050526 71 94 0.0 0.0 0.00 0.00 0.00 98 1009.6
20260509050022 71 98 0.0 0.0 0.00 0.00 0.00 98 1009.7
20260509045520 71 88 0.0 0.0 0.00 0.00 0.00 98 1009.9
20260509045011 71 95 0.0 0.0 0.00 0.00 0.00 98 1010.0
20260509044509 71 95 0.0 0.0 0.00 0.00 0.00 98 1009.9
20260509044006 71 97 0.0 0.0 0.00 0.00 0.00 98 1010.0
20260509043501 71 96 0.0 0.0 0.00 0.00 0.00 98 1010.0
20260509042957 71 104 0.0 0.0 0.00 0.00 0.00 98 1010.1
20260509042454 71 113 0.0 0.0 0.00 0.00 0.00 98 1010.2
20260509041950 71 164 1.0 2.0 0.00 0.00 0.00 98 1010.0
20260509041447 71 101 0.0 0.0 0.00 0.00 0.00 97 1010.2
20260509040945 71 101 0.0 0.0 0.00 0.00 0.00 97 1010.2
20260509040443 71 101 0.0 0.0 0.00 0.00 0.00 97 1010.1
20260509035939 71 100 0.0 0.0 0.00 0.00 0.00 97 1010.1
20260509035436 71 100 0.0 0.0 0.00 0.00 0.00 97 1010.2
20260509034933 71 100 0.0 0.0 0.00 0.00 0.00 96 1010.0
20260509034431 72 100 0.0 0.0 0.00 0.00 0.00 96 1010.1
20260509033927 72 105 0.0 0.0 0.00 0.00 0.00 96 1009.7
20260509033425 72 105 0.0 0.0 0.00 0.00 0.00 96 1009.7
20260509032921 72 97 0.0 0.0 0.00 0.00 0.00 96 1009.4
20260509032419 72 98 0.0 0.0 0.00 0.00 0.00 95 1009.7
20260509031917 72 97 0.0 0.0 0.00 0.00 0.00 95 1009.3
20260509031414 73 111 0.0 0.0 0.00 0.00 0.00 95 1009.4
20260509030911 73 110 0.0 0.0 0.00 0.00 0.00 94 1009.8
20260509030409 73 110 0.0 0.0 0.00 0.00 0.00 94 1009.5
20260509025906 73 110 0.0 0.0 0.00 0.00 0.00 94 1009.6
20260509025401 73 109 0.0 0.0 0.00 0.00 0.00 93 1009.5
20260509024856 73 101 0.0 0.0 0.00 0.00 0.00 93 1009.8
20260509024353 74 101 0.0 0.0 0.00 0.00 0.00 92 1009.4
20260509023850 74 105 0.0 0.0 0.00 0.00 0.00 92 1009.3
20260509023348 74 105 0.0 0.0 0.00 0.00 0.00 91 1009.4
20260509022844 74 74 0.0 2.0 0.00 0.00 0.00 91 1009.2
20260509022341 75 93 0.0 2.0 0.00 0.00 0.00 91 1009.1
20260509021838 75 120 1.0 2.0 0.00 0.00 0.00 90 1009.2
20260509021330 75 104 0.0 0.0 0.00 0.00 0.00 90 1009.0
20260509020828 75 104 0.0 0.0 0.00 0.00 0.00 90 1008.9
20260509020326 75 125 0.0 0.0 0.00 0.00 0.00 89 1009.3
20260509015822 75 102 0.0 2.0 0.00 0.00 0.00 89 1009.1
20260509015320 76 124 0.0 2.0 0.00 0.00 0.00 88 1008.9
20260509014816 76 79 2.0 5.0 0.00 0.00 0.00 88 1008.9
20260509014313 76 106 0.0 2.0 0.00 0.00 0.00 88 1008.9
20260509013810 76 76 0.0 2.0 0.00 0.00 0.00 88 1008.9
20260509013307 76 116 1.0 2.0 0.00 0.00 0.00 88 1008.9
20260509012803 76 108 0.0 2.0 0.00 0.00 0.00 88 1008.8
20260509012259 76 96 0.0 0.0 0.00 0.00 0.00 87 1008.7
20260509011757 76 133 0.0 2.0 0.00 0.00 0.00 87 1008.6
20260509011254 76 104 0.0 0.0 0.00 0.00 0.00 87 1008.9
20260509010752 77 100 0.0 0.0 0.00 0.00 0.00 86 1008.8
20260509010248 77 106 1.0 2.0 0.00 0.00 0.00 86 1008.9
20260509005746 77 105 0.0 0.0 0.00 0.00 0.00 86 1008.8
20260509005243 77 101 0.0 0.0 0.00 0.00 0.00 86 1008.8
20260509004737 77 106 0.0 0.0 0.00 0.00 0.00 86 1008.8
20260509004235 77 105 0.0 0.0 0.00 0.00 0.00 85 1008.8
20260509003733 77 102 0.0 0.0 0.00 0.00 0.00 85 1008.9
20260509003230 77 117 0.0 2.0 0.00 0.00 0.00 84 1008.8
20260509002727 77 115 1.0 2.0 0.00 0.00 0.00 84 1008.5
20260509002225 78 143 2.0 2.0 0.00 0.00 0.00 84 1008.5
20260509001722 78 89 0.0 2.0 0.00 0.00 0.00 84 1008.6
20260509001218 78 95 1.0 2.0 0.00 0.00 0.00 84 1008.7
20260509000716 78 119 1.0 2.0 0.00 0.00 0.00 83 1008.7
20260509000213 78 82 1.0 2.0 0.00 0.00 0.00 83 1008.9
20260508235710 78 118 0.0 2.0 0.00 0.00 0.00 83 1008.9
20260508235206 78 111 0.0 0.0 0.00 0.00 0.00 83 1008.6
20260508234704 78 131 1.0 2.0 0.00 0.00 0.00 83 1008.8
20260508234200 78 178 1.0 3.0 0.00 0.00 0.00 82 1008.7
20260508233654 78 104 0.0 0.0 0.00 0.00 0.00 82 1009.0
20260508233151 78 150 1.0 2.0 0.00 0.00 0.00 82 1008.8
20260508232649 78 103 0.0 0.0 0.00 0.00 0.00 82 1008.8
20260508232145 79 106 0.0 0.0 0.00 0.00 0.00 81 1008.9
20260508231643 79 184 2.0 3.0 0.00 0.00 0.00 80 1008.7
20260508231140 79 117 0.0 0.0 0.00 0.00 0.00 80 1008.9
20260508230637 80 104 3.0 5.0 0.00 0.00 0.00 79 1008.8
20260508230133 80 178 2.0 3.0 0.00 0.00 0.00 78 1008.7
20260508225631 80 148 1.0 2.0 0.00 0.00 0.00 79 1008.8
20260508225127 81 57 1.0 2.0 0.00 0.00 0.00 78 1008.6
20260508224625 80 102 1.0 2.0 0.00 0.00 0.00 78 1008.7
20260508224122 80 186 2.0 2.0 0.00 0.00 0.00 77 1008.6
20260508223620 81 108 0.0 2.0 0.00 0.00 0.00 76 1008.6
20260508223117 82 124 0.0 2.0 0.00 0.00 0.00 75 1008.6
20260508222614 82 146 2.0 2.0 0.00 0.00 0.00 74 1008.7
20260508222111 82 159 2.0 2.0 0.00 0.00 0.00 76 1008.7
20260508221607 82 182 1.0 2.0 0.00 0.00 0.00 75 1008.9
20260508221103 81 81 1.0 2.0 0.00 0.00 0.00 77 1009.1
20260508220559 81 80 0.0 0.0 0.00 0.00 0.00 78 1008.8
20260508220055 81 132 0.0 2.0 0.00 0.00 0.00 77 1008.9
20260508215552 81 128 1.0 2.0 0.00 0.00 0.00 77 1009.1
20260508215049 80 166 1.0 2.0 0.00 0.00 0.00 78 1009.0
20260508214547 80 152 1.0 2.0 0.00 0.00 0.00 77 1009.2
20260508214043 80 121 0.0 0.0 0.00 0.00 0.00 79 1009.0
20260508213540 79 132 1.0 2.0 0.00 0.00 0.00 80 1009.2
20260508213036 79 144 1.0 2.0 0.00 0.00 0.00 80 1009.2
20260508212532 79 94 0.0 0.0 0.00 0.00 0.00 80 1009.3
20260508212029 80 145 2.0 3.0 0.00 0.00 0.00 78 1009.5
20260508211525 81 54 2.0 2.0 0.00 0.00 0.00 76 1009.4
20260508211021 80 121 2.0 5.0 0.00 0.00 0.00 77 1009.6
20260508210518 80 138 2.0 3.0 0.00 0.00 0.00 76 1009.4
20260508210016 81 64 2.0 2.0 0.00 0.00 0.00 77 1009.6
20260508205513 79 90 0.0 0.0 0.00 0.00 0.00 80 1009.6
20260508205009 78 129 0.0 0.0 0.00 0.00 0.00 81 1009.6
20260508204506 78 94 0.0 2.0 0.00 0.00 0.00 80 1010.0
20260508204001 80 118 2.0 2.0 0.00 0.00 0.00 78 1010.1
20260508203457 80 121 2.0 3.0 0.00 0.00 0.00 76 1010.3
20260508202953 79 126 0.0 2.0 0.00 0.00 0.00 77 1010.1
20260508202450 78 128 0.0 0.0 0.00 0.00 0.00 80 1010.2
20260508201947 78 86 0.0 0.0 0.00 0.00 0.00 80 1010.4